Tracking 31027 objects as of 19-Jul-2025
HD Live streaming from Space Station
objects crossing your sky now

ARIANE 1 DEB

Track ARIANE 1 DEB now!
10-day predictions


NORAD ID: 17429
Int'l Code: 1986-019FQ
Perigee: 619.5 km
Apogee: 675.2 km
Inclination: 99.1 °
Period: 97.5 minutes
Semi major axis: 7018 km
RCS: 0.0335 m2 (small)
Launch date: February 22, 1986
Source: France (FR)
Launch site: FRENCH GUIANA (FRGUI)

Note: This is SATELLITE DEBRIS
Your satellite tracking list
DMSP 5D-2 F13 DEB
Track 1 satellite(s)




NASA's NSSDC Master Catalog

Two Line Element Set (TLE):
1 17429U 86019FQ  25199.19310472  .00005682  00000-0  81317-3 0  9994
2 17429  99.0759  67.0732 0039661 260.2912  99.3814 14.76549741 22620
Source of the keplerian elements: AFSPC